Home   Weather   San Antonio   Past weeks

Flag for USA Past Weather in San Antonio, Texas, USA — Yesterday and Last 2 Weeks

Now
76 °F

Passing clouds.


Feels Like: 76 °F
Forecast: 69 / 88 °F
Wind: 14 mph from Southeast

Location: San Antonio International Airport

Current Time: Apr 29, 2017 at 2:18:24 am

Latest Report: Apr 29, 2017 at 12:51 am


Visibility: 10 mi

Pressure: 29.56 "Hg

Humidity: 85%

Dew Point: 71 °F

Location of San AntonioLocation

Past Weather in San Antonio — Graph

°F

San Antonio Temperature Yesterday

Maximum temperature yesterday: 92 °F (at 4:51 pm)
Minimum temperature yesterday: 70 °F (at 12:42 am)
Average temperature yesterday: 79 °F

High & Low Weather Summary for the Past Weeks

 TemperatureHumidityPressure
High92 °F (Apr 28, 4:51 pm)94% (Apr 14, 4:51 am)30.17 "Hg (Apr 14, 4:51 am)
Low50 °F (Apr 24, 6:51 am)14% (Apr 26, 4:51 pm)29.40 "Hg (Apr 26, 4:51 am)
Average72 °F68%29.86 "Hg
* Reported Apr 14 12:51 am — Apr 29 12:51 am, San Antonio, Weather by CustomWeather, © 2017

Note: Actual official high and low records may vary slightly from our data, if they occured in-between our weather recording intervals... More about our weather records

Advertising

San Antonio Weather History for the Previous 24 Hours

Scroll right to see more
 ConditionsComfort  
Time TempWeatherWind HumidityBarometerVisibility
12:51 am
Sat, Apr 29
76 °FPassing clouds.14 mph85%29.56 "Hg10 mi
11:51 pm
Fri, Apr 28
76 °FPassing clouds.20 mph82%29.55 "Hg10 mi
10:51 pm78 °FPassing clouds.20 mph79%29.54 "Hg10 mi
9:51 pm80 °FPassing clouds.18 mph67%29.52 "Hg10 mi
8:51 pm84 °FPassing clouds.14 mph65%29.49 "Hg10 mi
7:51 pm86 °FPassing clouds.16 mph61%29.48 "Hg10 mi
6:51 pm91 °FPassing clouds.12 mph45%29.46 "Hg10 mi
5:51 pm92 °FPassing clouds.13 mph43%29.47 "Hg10 mi
4:51 pm92 °FPassing clouds.10 mph46%29.47 "Hg10 mi
3:51 pm91 °FPassing clouds.14 mph49%29.50 "Hg10 mi
2:51 pm89 °FPassing clouds.14 mph48%29.52 "Hg10 mi
1:51 pm87 °FPassing clouds.13 mph53%29.54 "Hg10 mi
12:51 pm83 °FScattered clouds.9 mph63%29.57 "Hg10 mi
12:37 pm82 °FScattered clouds.5 mph65%29.63 "Hg10 mi
11:51 am81 °FPartly sunny.8 mph67%29.59 "Hg10 mi
10:51 am77 °FPartly sunny.9 mph74%29.59 "Hg10 mi
9:51 am76 °FPartly sunny.14 mph77%29.59 "Hg10 mi
8:51 am74 °FMostly cloudy.8 mph82%29.59 "Hg10 mi
7:51 am73 °FMostly cloudy.10 mph81%29.59 "Hg7 mi
7:23 am72 °FMostly cloudy.7 mph84%29.62 "Hg6 mi
6:51 am72 °FOvercast.8 mph84%29.54 "Hg10 mi
5:51 am70 °FPassing clouds.8 mph87%29.54 "Hg10 mi
4:51 am71 °FOvercast.7 mph84%29.55 "Hg10 mi
3:51 am71 °FOvercast.8 mph81%29.55 "Hg10 mi
2:51 am71 °FOvercast.10 mph81%29.57 "Hg10 mi
Weather by CustomWeather, © 2017

See weather overviewHow to use our weather pages